Time,TemperatureF,DewpointF,PressureIn,WindDirection,WindDirectionDegrees,WindSpeedMPH,WindSpeedGustMPH,Humidity,HourlyPrecipIn,Conditions,Clouds,dailyrainin,SolarRadiationWatts/m^2,SoftwareType,DateUTC
2013-09-06 00:03:00,62.4,53.0,30.20,ENE,77,0.0,1.0,72,0.00,,,0.00,0,weatherlink.com 1.10,2013-09-06 05:03:00,
2013-09-06 00:18:00,62.0,53.0,30.20,SE,140,0.0,1.0,73,0.00,,,0.00,0,weatherlink.com 1.10,2013-09-06 05:18:00,
2013-09-06 00:33:00,62.0,54.0,30.20,SE,140,0.0,0.0,75,0.00,,,0.00,0,weatherlink.com 1.10,2013-09-06 05:33:00,
2013-09-06 00:48:00,61.2,54.0,30.19,SE,140,0.0,0.0,77,0.00,,,0.00,0,weatherlink.com 1.10,2013-09-06 05:48:00,
2013-09-06 01:03:00,61.2,54.0,30.19,SE,140,0.0,0.0,77,0.00,,,0.00,0,weatherlink.com 1.10,2013-09-06 06:03:00,
2013-09-06 01:18:00,61.5,55.0,30.19,SE,140,0.0,1.0,78,0.00,,,0.00,0,weatherlink.com 1.10,2013-09-06 06:18:00,
2013-09-06 01:33:00,61.5,55.0,30.18,SE,140,0.0,0.0,78,0.00,,,0.00,0,weatherlink.com 1.10,2013-09-06 06:33:00,
2013-09-06 01:48:00,61.4,55.0,30.18,SE,140,0.0,0.0,79,0.00,,,0.00,0,weatherlink.com 1.10,2013-09-06 06:48:00,
2013-09-06 02:03:00,60.9,55.0,30.19,SE,140,0.0,0.0,80,0.00,,,0.00,0,weatherlink.com 1.10,2013-09-06 07:03:00,
2013-09-06 02:18:00,60.5,54.0,30.18,SE,140,0.0,0.0,80,0.00,,,0.00,0,weatherlink.com 1.10,2013-09-06 07:18:00,
2013-09-06 02:33:00,60.4,55.0,30.18,SE,144,0.0,0.0,81,0.00,,,0.00,0,weatherlink.com 1.10,2013-09-06 07:33:00,
2013-09-06 02:48:00,60.5,55.0,30.18,SE,144,0.0,1.0,82,0.00,,,0.00,0,weatherlink.com 1.10,2013-09-06 07:48:00,
2013-09-06 03:03:00,59.9,54.0,30.18,SE,144,0.0,1.0,82,0.00,,,0.00,0,weatherlink.com 1.10,2013-09-06 08:03:00,
2013-09-06 03:18:00,59.0,53.0,30.18,SE,144,0.0,0.0,81,0.00,,,0.00,0,weatherlink.com 1.10,2013-09-06 08:18:00,
2013-09-06 03:33:00,58.0,53.0,30.18,SE,144,0.0,1.0,82,0.00,,,0.00,0,weatherlink.com 1.10,2013-09-06 08:33:00,
2013-09-06 03:48:00,57.6,52.0,30.18,SE,144,0.0,0.0,82,0.00,,,0.00,0,weatherlink.com 1.10,2013-09-06 08:48:00,
2013-09-06 04:03:00,57.6,52.0,30.18,SE,144,0.0,1.0,82,0.00,,,0.00,0,weatherlink.com 1.10,2013-09-06 09:03:00,
2013-09-06 04:18:00,57.3,52.0,30.19,SE,144,0.0,0.0,83,0.00,,,0.00,0,weatherlink.com 1.10,2013-09-06 09:18:00,
2013-09-06 04:33:00,57.0,52.0,30.19,SE,144,0.0,0.0,84,0.00,,,0.00,0,weatherlink.com 1.10,2013-09-06 09:33:00,
2013-09-06 04:48:00,57.3,53.0,30.19,SE,144,0.0,0.0,85,0.00,,,0.00,0,weatherlink.com 1.10,2013-09-06 09:48:00,
2013-09-06 05:03:00,58.0,54.0,30.18,SE,144,0.0,0.0,86,0.00,,,0.00,0,weatherlink.com 1.10,2013-09-06 10:03:00,
2013-09-06 05:18:00,58.4,54.0,30.18,SE,144,0.0,0.0,85,0.00,,,0.00,0,weatherlink.com 1.10,2013-09-06 10:18:00,
2013-09-06 05:33:00,58.0,54.0,30.18,SE,144,0.0,0.0,87,0.00,,,0.00,0,weatherlink.com 1.10,2013-09-06 10:33:00,
2013-09-06 05:48:00,58.4,55.0,30.18,SE,144,0.0,1.0,87,0.00,,,0.00,0,weatherlink.com 1.10,2013-09-06 10:48:00,
2013-09-06 06:03:00,59.2,55.0,30.18,SE,144,0.0,1.0,87,0.00,,,0.00,0,weatherlink.com 1.10,2013-09-06 11:03:00,
2013-09-06 06:18:00,59.3,56.0,30.18,SE,144,0.0,1.0,88,0.00,,,0.00,0,weatherlink.com 1.10,2013-09-06 11:18:00,
2013-09-06 06:33:00,59.6,56.0,30.18,South,173,0.0,3.0,88,0.00,,,0.00,5,weatherlink.com 1.10,2013-09-06 11:33:00,
2013-09-06 06:48:00,60.3,57.0,30.18,South,182,0.0,2.0,87,0.00,,,0.00,16,weatherlink.com 1.10,2013-09-06 11:48:00,
2013-09-06 07:03:00,61.3,57.0,30.18,SSW,200,1.0,3.0,86,0.00,,,0.00,25,weatherlink.com 1.10,2013-09-06 12:03:00,
2013-09-06 07:18:00,62.1,57.0,30.18,South,182,2.0,5.0,83,0.00,,,0.00,32,weatherlink.com 1.10,2013-09-06 12:18:00,
2013-09-06 07:33:00,62.5,56.0,30.17,SSW,195,0.0,6.0,80,0.00,,,0.00,39,weatherlink.com 1.10,2013-09-06 12:33:00,
2013-09-06 07:48:00,63.3,55.0,30.18,SE,146,3.0,4.0,75,0.00,,,0.00,42,weatherlink.com 1.10,2013-09-06 12:48:00,
2013-09-06 08:03:00,64.0,55.0,30.18,South,188,0.0,5.0,73,0.00,,,0.00,243,weatherlink.com 1.10,2013-09-06 13:03:00,
2013-09-06 08:19:00,65.1,55.0,30.17,South,173,0.0,3.0,70,0.00,,,0.00,290,weatherlink.com 1.10,2013-09-06 13:19:00,
2013-09-06 08:34:00,66.1,54.0,30.17,South,186,3.0,4.0,66,0.00,,,0.00,348,weatherlink.com 1.10,2013-09-06 13:34:00,
2013-09-06 08:49:00,67.2,54.0,30.16,South,183,2.0,3.0,63,0.00,,,0.00,381,weatherlink.com 1.10,2013-09-06 13:49:00,
2013-09-06 09:04:00,67.7,53.0,30.16,SSE,165,2.0,5.0,59,0.00,,,0.00,411,weatherlink.com 1.10,2013-09-06 14:04:00,
2013-09-06 09:19:00,68.5,53.0,30.16,SSW,198,1.0,5.0,58,0.00,,,0.00,434,weatherlink.com 1.10,2013-09-06 14:19:00,
2013-09-06 09:34:00,70.7,52.0,30.15,SSW,195,1.0,4.0,52,0.00,,,0.00,483,weatherlink.com 1.10,2013-09-06 14:34:00,
2013-09-06 09:49:00,71.0,51.0,30.15,South,190,2.0,5.0,49,0.00,,,0.00,527,weatherlink.com 1.10,2013-09-06 14:49:00,
2013-09-06 10:04:00,72.4,51.0,30.15,SSW,196,2.0,4.0,48,0.00,,,0.00,524,weatherlink.com 1.10,2013-09-06 15:04:00,
2013-09-06 10:19:00,73.8,53.0,30.14,SSE,163,2.0,4.0,48,0.00,,,0.00,573,weatherlink.com 1.10,2013-09-06 15:19:00,
2013-09-06 10:34:00,74.1,54.0,30.14,SSE,168,3.0,4.0,49,0.00,,,0.00,596,weatherlink.com 1.10,2013-09-06 15:34:00,
2013-09-06 10:49:00,75.1,53.0,30.14,SSW,207,0.0,6.0,46,0.00,,,0.00,619,weatherlink.com 1.10,2013-09-06 15:49:00,
2013-09-06 11:04:00,76.1,53.0,30.14,South,183,0.0,5.0,45,0.00,,,0.00,455,weatherlink.com 1.10,2013-09-06 16:04:00,
2013-09-06 11:19:00,76.3,55.0,30.14,SSW,193,2.0,6.0,47,0.00,,,0.00,673,weatherlink.com 1.10,2013-09-06 16:19:00,
2013-09-06 11:34:00,76.9,61.0,30.14,South,178,0.0,2.0,59,0.00,,,0.00,744,weatherlink.com 1.10,2013-09-06 16:34:00,
2013-09-06 11:49:00,77.0,61.0,30.13,SSW,193,0.0,2.0,58,0.00,,,0.00,687,weatherlink.com 1.10,2013-09-06 16:49:00,
2013-09-06 12:04:00,76.2,60.0,30.13,South,176,1.0,3.0,58,0.00,,,0.00,714,weatherlink.com 1.10,2013-09-06 17:04:00,
2013-09-06 12:19:00,76.2,61.0,30.12,South,190,0.0,5.0,59,0.00,,,0.00,726,weatherlink.com 1.10,2013-09-06 17:19:00,
2013-09-06 12:34:00,77.4,62.0,30.11,SSE,157,1.0,3.0,59,0.00,,,0.00,728,weatherlink.com 1.10,2013-09-06 17:34:00,
2013-09-06 12:49:00,77.8,63.0,30.10,SSW,194,1.0,5.0,60,0.00,,,0.00,729,weatherlink.com 1.10,2013-09-06 17:49:00,
2013-09-06 13:05:00,77.1,62.0,30.09,South,180,3.0,6.0,60,0.00,,,0.00,677,weatherlink.com 1.10,2013-09-06 18:05:00,
2013-09-06 13:20:00,76.9,64.0,30.08,SW,225,1.0,7.0,64,0.00,,,0.00,705,weatherlink.com 1.10,2013-09-06 18:20:00,
2013-09-06 13:35:00,77.2,63.0,30.07,SSW,198,3.0,6.0,61,0.00,,,0.00,703,weatherlink.com 1.10,2013-09-06 18:35:00,
2013-09-06 13:50:00,77.8,64.0,30.06,South,171,0.0,5.0,63,0.00,,,0.00,719,weatherlink.com 1.10,2013-09-06 18:50:00,
2013-09-06 14:05:00,78.0,64.0,30.06,South,179,1.0,5.0,62,0.00,,,0.00,664,weatherlink.com 1.10,2013-09-06 19:05:00,
2013-09-06 14:20:00,77.4,64.0,30.05,South,180,0.0,5.0,63,0.00,,,0.00,613,weatherlink.com 1.10,2013-09-06 19:20:00,
2013-09-06 14:35:00,77.4,65.0,30.05,South,172,3.0,5.0,65,0.00,,,0.00,649,weatherlink.com 1.10,2013-09-06 19:35:00,
2013-09-06 14:50:00,77.1,64.0,30.04,SSW,196,0.0,7.0,65,0.00,,,0.00,599,weatherlink.com 1.10,2013-09-06 19:50:00,
2013-09-06 15:05:00,77.3,65.0,30.03,South,187,2.0,7.0,66,0.00,,,0.00,578,weatherlink.com 1.10,2013-09-06 20:05:00,
2013-09-06 15:20:00,77.3,65.0,30.02,ESE,113,0.0,7.0,66,0.00,,,0.00,536,weatherlink.com 1.10,2013-09-06 20:20:00,
2013-09-06 15:35:00,77.3,65.0,30.02,SSE,167,0.0,6.0,66,0.00,,,0.00,102,weatherlink.com 1.10,2013-09-06 20:35:00,
2013-09-06 15:50:00,76.7,65.0,30.02,South,179,1.0,4.0,67,0.00,,,0.00,98,weatherlink.com 1.10,2013-09-06 20:50:00,
2013-09-06 16:05:00,75.6,66.0,30.02,South,191,1.0,2.0,71,0.00,,,0.00,125,weatherlink.com 1.10,2013-09-06 21:05:00,
2013-09-06 16:20:00,75.3,66.0,30.02,South,180,1.0,5.0,72,0.00,,,0.00,146,weatherlink.com 1.10,2013-09-06 21:20:00,
2013-09-06 16:35:00,75.5,66.0,30.01,South,188,1.0,6.0,72,0.00,,,0.00,123,weatherlink.com 1.10,2013-09-06 21:35:00,
2013-09-06 16:50:00,75.0,66.0,30.01,South,178,0.0,3.0,74,0.00,,,0.00,95,weatherlink.com 1.10,2013-09-06 21:50:00,
2013-09-06 17:05:00,74.2,66.0,30.00,SSW,198,0.0,6.0,75,0.00,,,0.00,67,weatherlink.com 1.10,2013-09-06 22:05:00,
2013-09-06 17:20:00,73.8,66.0,30.00,South,178,1.0,6.0,77,0.00,,,0.00,67,weatherlink.com 1.10,2013-09-06 22:20:00,
2013-09-06 17:35:00,73.7,66.0,29.99,South,185,2.0,4.0,78,0.00,,,0.00,62,weatherlink.com 1.10,2013-09-06 22:35:00,
2013-09-06 17:50:00,73.4,67.0,30.00,South,181,1.0,4.0,79,0.00,,,0.00,44,weatherlink.com 1.10,2013-09-06 22:50:00,
2013-09-06 18:06:00,73.1,67.0,29.99,South,187,1.0,5.0,80,0.00,,,0.00,40,weatherlink.com 1.10,2013-09-06 23:06:00,
2013-09-06 18:20:00,72.8,66.0,29.99,South,187,2.0,5.0,80,0.00,,,0.00,33,weatherlink.com 1.10,2013-09-06 23:20:00,
2013-09-06 18:35:00,72.7,67.0,29.99,South,181,2.0,5.0,81,0.00,,,0.00,26,weatherlink.com 1.10,2013-09-06 23:35:00,
2013-09-06 18:50:00,72.7,67.0,29.98,South,178,0.0,3.0,81,0.00,,,0.00,18,weatherlink.com 1.10,2013-09-06 23:50:00,
2013-09-06 19:06:00,72.5,66.0,29.98,South,181,2.0,3.0,81,0.00,,,0.00,9,weatherlink.com 1.10,2013-09-07 00:06:00,
2013-09-06 19:20:00,72.5,66.0,29.96,South,181,1.0,2.0,81,0.00,,,0.00,0,weatherlink.com 1.10,2013-09-07 00:20:00,
2013-09-06 19:35:00,73.2,67.0,29.96,South,170,1.0,3.0,80,0.00,,,0.00,0,weatherlink.com 1.10,2013-09-07 00:35:00,
2013-09-06 19:51:00,73.1,67.0,29.96,South,188,0.0,3.0,80,0.00,,,0.00,0,weatherlink.com 1.10,2013-09-07 00:51:00,
2013-09-06 20:05:00,72.7,67.0,29.96,South,184,0.0,2.0,81,0.00,,,0.00,0,weatherlink.com 1.10,2013-09-07 01:05:00,
2013-09-06 20:20:00,72.3,67.0,29.97,South,184,0.0,2.0,82,0.00,,,0.00,0,weatherlink.com 1.10,2013-09-07 01:20:00,
2013-09-06 20:35:00,71.8,67.0,29.97,South,184,0.0,1.0,84,0.00,,,0.00,0,weatherlink.com 1.10,2013-09-07 01:35:00,
2013-09-06 20:50:00,72.5,67.0,29.97,South,178,1.0,2.0,83,0.00,,,0.00,0,weatherlink.com 1.10,2013-09-07 01:50:00,
2013-09-06 21:06:00,72.6,67.0,29.97,South,181,1.0,3.0,82,0.00,,,0.00,0,weatherlink.com 1.10,2013-09-07 02:06:00,
2013-09-06 21:20:00,72.3,67.0,29.96,South,175,1.0,3.0,83,0.00,,,0.00,0,weatherlink.com 1.10,2013-09-07 02:20:00,
2013-09-06 21:35:00,71.9,67.0,29.96,South,175,0.0,2.0,83,0.00,,,0.00,0,weatherlink.com 1.10,2013-09-07 02:35:00,
2013-09-06 21:50:00,71.7,67.0,29.96,South,175,0.0,1.0,84,0.00,,,0.00,0,weatherlink.com 1.10,2013-09-07 02:50:00,
2013-09-06 22:05:00,72.2,67.0,29.96,SSW,192,0.0,5.0,83,0.00,,,0.00,0,weatherlink.com 1.10,2013-09-07 03:05:00,
2013-09-06 22:20:00,71.7,67.0,29.95,South,176,0.0,3.0,84,0.00,,,0.00,0,weatherlink.com 1.10,2013-09-07 03:20:00,
2013-09-06 22:35:00,71.6,67.0,29.95,South,188,0.0,2.0,84,0.00,,,0.00,0,weatherlink.com 1.10,2013-09-07 03:35:00,
2013-09-06 22:50:00,71.6,67.0,29.95,SSW,199,0.0,2.0,84,0.00,,,0.00,0,weatherlink.com 1.10,2013-09-07 03:50:00,
2013-09-06 23:05:00,71.9,67.0,29.95,South,191,1.0,3.0,83,0.00,,,0.00,0,weatherlink.com 1.10,2013-09-07 04:05:00,
2013-09-06 23:20:00,71.9,67.0,29.95,SSW,198,0.0,4.0,83,0.00,,,0.00,0,weatherlink.com 1.10,2013-09-07 04:20:00,
2013-09-06 23:35:00,72.1,67.0,29.95,SSW,192,1.0,4.0,83,0.00,,,0.00,0,weatherlink.com 1.10,2013-09-07 04:35:00,
2013-09-06 23:50:00,71.8,66.0,29.94,SSW,197,1.0,4.0,83,0.00,,,0.00,0,weatherlink.com 1.10,2013-09-07 04:50:00,